HISPASAT 36W-1 (41942 NORAD) Tracking and Keplerian Element Data

This shows tracking and keplerian element data for the satellite.

Feedback or suggestion? Click here.




ElementValue
Catalog41942
NameHISPASAT 36W-1
Epoch Orbit707
Epoch Day351.85990543
Epoch Year2018
RAAN299.6275
Inclination0.0104
Eccentricity9.54E-05
Argument of Perigee325.4618
Mean Anonmoly94.8999
Mean Motion1.00270255
Decay Rate-2.28E-06
L11 41942U 17006A 18351.85990543 -.00000228 00000-0 00000+0 0 9997
L22 41942 0.0104 299.6275 0000954 325.4618 94.8999 1.00270255 7078

Live tracking and technical data element details for HISPASAT 36W-1 (NORAD 41942). HISPASAT 36W-1 can be tracked NOW for your location showing map with azimuth and elevation plus other details from your city location.

Track the satellite on the map from your city or location and see movement details for azimuth, elevation, latitude, longitude, range, height, and movement on the map or in text.







IsCatalogInMostPopularTable: catalog: 41942, numindb: 118
Update: records affected: 1



GetName: 41942 HISPASAT 36W-1

Hit Count: updated at: Wed, 19 Dec 2018 15:48:08 GMT